User: anonymous   Login
Location: Unspecified
(0.0000°N, 0.0000°E)
Time: 08:55:18
(UTC+00:00)
Language:

STARLINK-5926 - Orbit

View from above orbital plane
View from above orbital plane
View from above satellite
View from above satellite

Ground track
Ground track

The orbit is defined by the following mean orbital elements,

1 55944U          26145.26458087 +.00000000 +00000-0 +96834-4 0 00002
2 55944  69.9997  91.2530 0003377 265.6538  94.4236 14.98335115    01
Epoch (UTC): 25 May 2026 06:20:59
Eccentricity: 0.0003377
inclination: 69.9997°
perigee height: 570 km
apogee height: 574 km
right ascension of ascending node: 91.2530°
argument of perigee: 265.6538°
revolutions per day: 14.98335115
mean anomaly at epoch: 94.4236°

The dashed part of the orbit path shows where the satellite is in the earth's shadow,  

DLR